This is the latest recevied weather packets stored in our database for station/object W2TAO. If no packets are shown the sender has not sent any weather packets the latest 10 day(s).
| Time | Temp. | Humidity | Pressure | Rain* | Wind** | Luminosity | Snow |
|---|---|---|---|---|---|---|---|
| 1777520537 | 7.78° C | 99% | 1009.7 hPa | 4.32 mm | - | 0 W/m² | - |
| 1777520234 | 7.78° C | 99% | 1009.9 hPa | 6.6 mm | - | 0 W/m² | - |
| 1777519932 | 7.78° C | 99% | 1010.1 hPa | 6.6 mm | - | 0 W/m² | - |
| 1777519629 | 7.78° C | 99% | 1010.3 hPa | 4.32 mm | - | 0 W/m² | - |
| 1777519324 | 7.78° C | 99% | 1010.4 hPa | 3.56 mm | - | 0 W/m² | - |
| 1777519021 | 7.78° C | 99% | 1010.4 hPa | 3.56 mm | - | 0 W/m² | - |
| 1777518717 | 7.78° C | 99% | 1010.4 hPa | 3.56 mm | - | 0 W/m² | - |
| 1777518415 | 7.78° C | 99% | 1010.4 hPa | 4.32 mm | - | 0 W/m² | - |
| 1777518109 | 7.78° C | 99% | 1010.2 hPa | 3.56 mm | - | 0 W/m² | - |
| 1777517806 | 8.33° C | 99% | 1010.4 hPa | 3.05 mm | - | 0 W/m² | - |
| 1777517502 | 8.33° C | 99% | 1010.5 hPa | 2.29 mm | - | 0 W/m² | - |
| 1777517201 | 8.33° C | 99% | 1010.6 hPa | 1.78 mm | - | 0 W/m² | - |
| 1777516899 | 8.33° C | 99% | 1010.6 hPa | 3.05 mm | - | 0 W/m² | - |
| 1777516596 | 8.33° C | 99% | 1010.7 hPa | 4.83 mm | - | 0 W/m² | - |
| 1777516291 | 8.33° C | 99% | 1010.7 hPa | 4.32 mm | - | 0 W/m² | - |
| 1777515987 | 8.33° C | 99% | 1010.8 hPa | 2.29 mm | - | 0 W/m² | - |
| 1777515684 | 8.33° C | 99% | 1011 hPa | 1.78 mm | - | 0 W/m² | - |
| 1777515381 | 8.33° C | 99% | 1010.6 hPa | 1.78 mm | - | 0 W/m² | - |
| 1777515077 | 8.89° C | 99% | 1011.1 hPa | 1.27 mm | - | 0 W/m² | - |
| 1777514774 | 8.89° C | 99% | 1010.8 hPa | 2.29 mm | - | 0 W/m² | - |
| 1777514471 | 8.89° C | 98% | 1011 hPa | 4.83 mm | - | 0 W/m² | - |
| 1777514168 | 8.89° C | 98% | 1011.1 hPa | 4.83 mm | - | 0 W/m² | - |
| 1777513864 | 8.89° C | 98% | 1010.8 hPa | 5.33 mm | - | 0 W/m² | - |
| 1777513562 | 8.89° C | 98% | 1011.1 hPa | 4.83 mm | - | 0 W/m² | - |
| 1777513258 | 8.89° C | 98% | 1011 hPa | 4.32 mm | - | 0 W/m² | - |
* Rain latest hour (hover to see other rain measurements)
** Current wind speed in m/s (hover to see current wind gust speed)